Overview Statistics Trail Chart Weather Telemetry Raw packets
 

This is the latest recevied weather packets stored in our database for station/object SP6YY-15. If no packets are shown the sender has not sent any weather packets the latest 10 day(s).

<< 4 5 6 7 8 9 10 >>
Time Temp. Humidity Pressure Rain* Wind** Luminosity Snow
1777536178 22.22° C 19% 1018.5 hPa - - - -
1777535878 21.67° C 19% 1018.5 hPa - - - -
1777535578 21.67° C 19% 1018.5 hPa - - - -
1777535278 21.11° C 20% 1018.4 hPa - - - -
1777534978 21.11° C 19% 1018.3 hPa - - - -
1777534678 20.56° C 19% 1018.3 hPa - - - -
1777534379 20° C 19% 1018.4 hPa - - - -
1777534078 20° C 19% 1018.4 hPa - - - -
1777533778 20° C 19% 1018.3 hPa - - - -
1777533478 19.44° C 19% 1018.4 hPa - - - -
1777533178 19.44° C 18% 1018.4 hPa - - - -
1777532878 19.44° C 18% 1018.5 hPa - - - -
1777532578 19.44° C 18% 1018.4 hPa - - - -
1777532278 19.44° C 18% 1018.5 hPa - - - -
1777531977 19.44° C 18% 1018.5 hPa - - - -
1777530178 23.89° C 16% 1018.4 hPa - - - -
1777529878 22.78° C 16% 1018.6 hPa - - - -
1777529577 21.67° C 16% 1019 hPa - - - -
1777529277 20° C 15% 1018.4 hPa - - - -
1777480318 46.67° C 6% 1014.5 hPa - - - -
1777479717 46.67° C 6% 1015.1 hPa - - - -
1777479418 46.67° C 6% 1015 hPa - - - -
1777472491 48.89° C 7% 1014.9 hPa - - - -
1777470990 50° C 8% 1015 hPa - - - -
1777449671 24.44° C 16% 1015.3 hPa - - - -

* Rain since midnight (hover to see other rain measurements)
** Current wind speed in m/s (hover to see current wind gust speed)